Regional Weather Roundup
Issued by NWS San Angelo, TX

Home | Current Version | Previous Version | Text Only | Print | Product List | Glossary On
Versions: 1 2 3 4 5 6 7 8 9 10 11 12 13 14 15 16 17 18 19 20 21 22 23 24 25 26 27 28 29 30 31 32 33 34 35 36 37 38 39 40 41 42 43 44 45 46 47 48 49 50
000
ASUS44 KSJT 060811
RWRSJT
WEST CENTRAL TEXAS REGIONAL WEATHER ROUNDUP
NATIONAL WEATHER SERVICE SAN ANGELO TX
200 AM CST SAT FEB 06 2016

NOTE: "FAIR" INDICATES FEW OR NO CLOUDS BELOW 12,000 FEET WITH NO
SIGNIFICANT WEATHER AND/OR OBSTRUCTIONS TO VISIBILITY.

TXZ049-054-064>066-071>073-076>078-098-099-113-114-127-128-139-140-
154-155-168>170-060900
...LOCATIONS ACROSS WEST CENTRAL TEXAS...

CITY           SKY/WX    TMP DP  RH WIND       PRES   REMARKS
SAN ANGELO     CLEAR     35  17  47 W10       30.37R WCI  27
ABILENE        CLEAR     40  21  46 NW20G28   30.28R WCI  30
DYESS AFB      CLEAR     39  21  48 NW15      30.29S WCI  31
JUNCTION       CLEAR     36  23  59 W6        30.36R WCI  31
SWEETWATER     CLEAR     39  22  50 W15       30.35R WCI  30
BROWNWOOD      NOT AVBL
COLEMAN        SUNNY     42  19  40 W12       30.30S WCI  35
SONORA         CLEAR     36  18  48 N5        30.42R WCI  32
OZONA          FAIR      37  19  48 N9        30.43R WCI  31
BRADY          NOT AVBL
$$

TEXAS PANHANDLE/OKLAHOMA PANHANDLE

CITY           SKY/WX    TMP DP  RH WIND       PRES   REMARKS
AMARILLO       CLEAR     24  17  74 NW9       30.35S WCI  14
BORGER         CLEAR     27  18  69 W7        30.35F WCI  19
CANADIAN       CLEAR     27  22  81 NW3       30.34R
DALHART        CLEAR     19  12  74 NW9       30.36F WCI   8
DUMAS          SUNNY     21  15  78 W8        30.35S WCI  11
GUYMON         NOT AVBL
HEREFORD       NOT AVBL
PAMPA          SUNNY     22  18  87 W8        30.34S WCI  12
PERRYTON       CLEAR     25  20  81 NW8       30.33S WCI  17
$$

SOUTHERN PANHANDLE/SOUTH PLAINS/ROLLING PLAINS

CITY           SKY/WX    TMP DP  RH WIND       PRES   REMARKS
LUBBOCK        CLEAR     25  17  72 NW10      30.36R WCI  15
SNYDER           N/A     32  21  64 W10       30.36R WCI  24
CHILDRESS      CLEAR     33  20  58 NW12      30.34R WCI  24
SEMINOLE       SUNNY     27  17  67 NW8       30.41S WCI  18
$$

PERMIAN BASIN

CITY           SKY/WX    TMP DP  RH WIND       PRES   REMARKS
MIDLAND        CLEAR     30  19  63 NW8       30.40S WCI  22
ODESSA         CLEAR     30  18  60 NW7       30.42R WCI  23
WINK           CLEAR     27  15  61 W8        30.43R WCI  19
$$

FAR WEST/SOUTHWEST MOUNTAINS/TRANS PECOS

CITY           SKY/WX    TMP DP  RH WIND       PRES   REMARKS
ALPINE         SUNNY     24  11  58 NW6       30.50R WCI  16
DRYDEN           N/A     37  15  40 NW7       30.41R WCI  32
EL PASO        PTCLDY    35   4  27 NE10      30.43R WCI  27
FORT STOCKTON  CLEAR     32  18  56 W7        30.45R WCI  26
GUADALUPE PASS CLOUDY    30   9  41 E14       30.41F WCI  19
MARFA          CLOUDY    21   8  57 N9        30.45R WCI  11
PECOS          SUNNY     28  15  59 W7        30.46S WCI  20
$$

DALLAS/FORT WORTH METROPLEX

CITY           SKY/WX    TMP DP  RH WIND       PRES   REMARKS
DFW AIRPORT    CLOUDY    44  28  53 SE9       30.22F WCI  39
FTW MEACHAM    PTCLDY    42  34  73 S8        30.21F WCI  37
DAL-EXECUTIVE  CLOUDY    42  32  67 SE10      30.22F WCI  36
GRAND PRAIRIE  MOCLDY    44  33  67 SE6       30.24F
ADDISON        CLOUDY    46  31  54 S10       30.25F
MESQUITE       CLOUDY    42  33  68 S10       30.27F WCI  36
LANCASTER      PTSUNNY   39  33  78 SE3       30.26F
$$

NORTH CENTRAL TEXAS

CITY           SKY/WX    TMP DP  RH WIND       PRES   REMARKS
SHRMAN/DENISON LGT RAIN  46  31  56 S17G25    30.27S WCI  39
GAINESVILLE    CLOUDY    45  30  56 S8        30.24F
BRIDGEPORT     SUNNY     41  35  78 SW6       30.24R WCI  37
DENTON         CLOUDY    44  32  62 SE9       30.22S WCI  39
WAXAHACHIE     PTSUNNY   39  37  90 SE6       30.25F WCI  35
GRANBURY       SUNNY     42  32  69 CALM      30.25S
$$

WESTERN NORTH TEXAS

CITY           SKY/WX    TMP DP  RH WIND       PRES   REMARKS
WICHITA FALLS  PTCLDY    35  24  64 NW9       30.21S WCI  28
VERNON         SUNNY     42  29  59 N15       30.28R WCI  35
BRECKENRIDGE   SUNNY     41  24  51 W14       30.23S WCI  34
COMANCHE       CLEAR     41  22  46 W10       30.26S WCI  35
$$

CENTRAL AND SOUTH CENTRAL TEXAS

CITY           SKY/WX    TMP DP  RH WIND       PRES   REMARKS
AUSTIN/BERGSTM MOCLDY    48  40  73 SW7       30.31S THUNDER
WACO           CLEAR     44  39  82 S12       30.26F WCI  38
HILLSBORO      SUNNY     42  36  78 S12       30.23F WCI  36
TEMPLE         CLEAR     43  39  86 SW6       30.29S WCI  39
KILLEEN-GRAY   CLEAR     46  37  71 SW7       30.28R
FORT HOOD      CLEAR     48  35  60 W7        30.26R
GEORGETOWN     MOCLDY    46  39  76 W7        30.30F
LAGO VISTA     PTSUNNY   48  42  81 W6        30.31S
SAN MARCOS     MOCLDY    46  41  81 W8        30.33S
NEW BRAUNFELS  CLOUDY    46  40  79 NW7       30.31R THUNDER
RANDOLPH AFB   LGT RAIN  48  41  76 VRB5      30.32R
SAN ANTONIO    MOCLDY    44  39  82 NW9       30.34R WCI  39
STINSON        PTCLDY    44  37  76 NW3       30.31S
PLEASANTON     NOT AVBL
LA GRANGE      CLEAR     45  41  85 S5        30.29F
GIDDINGS       PTSUNNY   45  38  78 S5        30.33F
$$

EAST TEXAS

CITY           SKY/WX    TMP DP  RH WIND       PRES   REMARKS
PARIS          MOCLDY    39  21  48 CALM      30.30R
CLARKSVILLE    NOT AVBL
TYLER          CLOUDY    44  29  55 S10       30.28S WCI  39
LONGVIEW       CLOUDY    38  29  70 S5        30.29S WCI  34
PALESTINE      CLOUDY    43  32  65 SE6       30.29F WCI  39
NACOGDOCHES    CLEAR     30  25  80 CALM      30.32S
$$

TEXAS HILL COUNTRY AND EDWARDS PLATEAU

CITY           SKY/WX    TMP DP  RH WIND       PRES   REMARKS
LLANO          SUNNY     43  32  65 CALM      30.36R
HORSESHOE BAY  FAIR      46  37  68 SW3       30.32S
KERRVILLE      PTCLDY    38  33  80 N3        30.34S
FREDERICKSBRG  CLEAR     44  32  63 CALM      30.33R
ROCKSPRINGS    SUNNY     43  19  39 NW9       30.37S WCI  37
HONDO          PTCLDY    36  29  75 N9        30.37R WCI  29
UVALDE         MOSUNNY   42  35  76 N12       30.37R WCI  36
DEL RIO        CLEAR     43  32  65 NW9       30.38R WCI  38
$$

SOUTHEAST TEXAS

CITY           SKY/WX    TMP DP  RH WIND       PRES   REMARKS
COLLEGE STN    PTCLDY    44  35  70 S7        30.29F
CALDWELL       MOSUNNY   45  36  70 S5        30.33S
CROCKETT       MOSUNNY   39  30  70 SE3       30.33F
BRENHAM        PTCLDY    47  37  68 S5        30.31F
HUNTSVILLE     CLEAR     44  31  60 SE5       30.30F
CONROE         PTCLDY    43  32  65 CALM      30.31F
HOUSTON BUSH   MOCLDY    48  36  63 SE5       30.32F
HOUSTON HOBBY  LGT RAIN  50  43  77 CALM      30.33F
PERLAND        CLOUDY    50  45  83 CALM      30.34F
WHARTON        PTSUNNY   45  42  89 CALM      30.33F
$$

THE UPPER TEXAS COAST

CITY           SKY/WX    TMP DP  RH WIND       PRES   REMARKS
ORANGE         CLOUDY    38  35  87 CALM      30.36S
PORT ARTHUR    CLOUDY    41  38  89 N3        30.34F
GALVESTON      LGT RAIN  53  44  71 SE8       30.33F
ANGLETON       CLOUDY    49  46  90 N5        30.33S
BAY CITY       PTSUNNY   50  45  84 CALM      30.32F
$$

TEXAS COASTAL BEND, RIO GRANDE PLAINS DEEP SOUTH TEXAS

CITY           SKY/WX    TMP DP  RH WIND       PRES   REMARKS
VICTORIA       CLEAR     47  42  83 E6        30.31F
BEEVILLE       FAIR      47  45  92 N5        30.32S
ROCKPORT       CLOUDY    57  50  77 E5        30.31S
PORT ARANSAS   CLOUDY    56  55  95 N3        30.31R
PORT LAVACA    PTSUNNY   50  46  87 E5        30.31F
CORPUS CHRISTI PTCLDY    54  47  77 N8        30.32R
KINGSVILLE NAS PTCLDY    52  49  89 N6        30.32R
COTULLA        CLEAR     48  41  76 S5        30.34S
LAREDO         PTCLDY    48  42  80 W3        30.35R
BROWNSVILLE    MOCLDY    56  52  86 N5        30.28S
PORT ISABEL    MOCLDY    59  55  87 NW3       30.28R
HEBBRONVILLE   NOT AVBL
MCALLEN        CLEAR     51  45  79 N6        30.31R
WESLACO        CLOUDY    50  45  83 N3        30.30R
FALFURRIAS     PTSUNNY   53  47  78 N3        30.32R
EDINBURG       PTSUNNY   51  47  85 NW6       30.32R
$$



USA.gov is the U.S. government's official web portal to all federal, state and local government web resources and services.